KF4PPJ Weather Reports


Display with metric or nautical units.
time (UTC)temp
F
wind
direction
speed
MPH
gust
MPH
rain 1hr
in
rain 24hr
in
rain mn
in
humidity
%
barometer
mb
20260904043659 56 152 0.0 0.0 0.00 0.10 0.10 95 1013.6
20260904043154 56 140 0.0 1.0 0.00 0.10 0.10 95 1013.8
20260904042650 56 146 0.0 0.0 0.00 0.10 0.10 95 1013.7
20260904042146 56 144 0.0 0.0 0.00 0.10 0.10 95 1013.6
20260904041641 56 149 0.0 0.0 0.00 0.10 0.10 95 1013.7
20260904041137 56 149 0.0 0.0 0.00 0.10 0.10 95 1013.6
20260904040633 56 151 0.0 0.0 0.00 0.10 0.10 95 1013.6
20260904040129 56 145 0.0 0.0 0.00 0.10 0.10 95 1013.8
20260904035625 56 145 0.0 0.0 0.00 0.10 0.10 94 1013.5
20260904035124 56 145 0.0 0.0 0.00 0.10 0.10 94 1013.6
20260904034619 56 145 0.0 0.0 0.00 0.10 0.10 94 1013.7
20260904034114 56 145 0.0 0.0 0.00 0.10 0.10 94 1013.6
20260904033610 56 145 0.0 0.0 0.00 0.10 0.10 94 1013.2
20260904033108 56 141 0.0 0.0 0.00 0.10 0.10 94 1013.2
20260904032608 56 148 0.0 0.0 0.00 0.10 0.10 93 1013.2
20260904032106 56 148 0.0 0.0 0.00 0.10 0.10 93 1013.2
20260904031606 57 148 0.0 0.0 0.00 0.10 0.10 93 1013.1
20260904031102 57 152 0.0 0.0 0.00 0.10 0.10 93 1013.2
20260904030558 57 152 0.0 0.0 0.00 0.10 0.10 93 1013.2
20260904030053 57 152 0.0 0.0 0.00 0.10 0.10 92 1013.0
20260904025548 57 152 0.0 0.0 0.00 0.10 0.10 92 1013.0
20260904025043 58 154 0.0 0.0 0.00 0.10 0.10 92 1012.9
20260904024539 58 153 0.0 0.0 0.00 0.10 0.10 92 1013.0
20260904024035 58 142 0.0 0.0 0.00 0.10 0.10 91 1013.0
20260904023531 58 159 0.0 0.0 0.00 0.10 0.10 91 1013.2
20260904023027 58 157 0.0 0.0 0.05 0.10 0.10 90 1013.0
20260904022526 58 157 0.0 0.0 0.05 0.10 0.10 90 1013.0
20260904022024 58 144 0.0 1.0 0.00 0.09 0.09 89 1013.0
20260904021519 59 139 0.0 0.0 0.00 0.09 0.09 89 1012.9
20260904021014 59 159 0.0 0.0 0.00 0.09 0.09 88 1012.9
20260904020514 59 154 0.0 0.0 0.00 0.09 0.09 87 1013.0
20260904020009 59 162 0.0 0.0 0.00 0.09 0.09 86 1012.9
20260904015503 60 149 0.0 2.0 0.07 0.09 0.09 85 1012.8
20260904015002 60 150 0.0 0.0 0.00 0.08 0.08 83 1012.7
20260904014456 60 130 0.0 0.0 0.00 0.08 0.08 82 1012.8
20260904013953 60 157 0.0 0.0 0.00 0.08 0.08 82 1012.8
20260904013448 61 86 2.0 5.0 0.00 0.08 0.08 80 1012.7
20260904012945 62 136 0.0 0.0 0.00 0.08 0.08 78 1012.7
20260904012444 63 143 0.0 0.0 0.00 0.08 0.08 72 1013.1
20260904011938 64 162 0.0 2.0 0.00 0.08 0.08 69 1012.9
20260904011433 64 178 2.0 2.0 0.00 0.08 0.08 66 1012.9
20260904010929 64 197 2.0 2.0 0.00 0.08 0.08 65 1012.8
20260904010425 65 183 2.0 5.0 0.00 0.08 0.08 63 1012.6
20260904005920 65 203 3.0 5.0 0.00 0.08 0.08 62 1012.8
20260904005416 65 215 2.0 3.0 0.00 0.08 0.08 62 1012.6
20260904004915 66 227 4.0 7.0 0.00 0.08 0.08 61 1012.6
20260904004412 67 175 4.0 5.0 0.00 0.08 0.08 60 1012.7
20260904003912 66 164 5.0 9.0 0.00 0.08 0.08 62 1012.4
20260904003403 66 191 1.0 3.0 0.00 0.08 0.08 65 1012.6
20260904002903 68 226 7.0 8.0 0.00 0.08 0.08 61 1012.3
20260904002400 68 188 1.0 5.0 0.00 0.08 0.08 60 1012.3
20260904001858 68 177 1.0 3.0 0.00 0.08 0.08 58 1012.5
20260904001354 67 248 3.0 5.0 0.00 0.08 0.08 60 1012.5
20260904000849 67 209 7.0 9.0 0.00 0.08 0.08 57 1012.3
20260904000348 69 174 6.0 8.0 0.00 0.08 0.08 53 1012.5
20260903235848 70 151 3.0 3.0 0.00 0.08 0.08 52 1012.4
20260903235345 68 199 2.0 3.0 0.00 0.08 0.08 53 1012.4
20260903234844 69 184 2.0 5.0 0.00 0.08 0.08 51 1012.3
20260903234340 69 160 2.0 5.0 0.00 0.08 0.08 51 1012.3
20260903233836 68 158 3.0 5.0 0.00 0.08 0.08 53 1012.2
20260903233332 69 154 6.0 8.0 0.00 0.08 0.08 52 1012.3
20260903232831 69 184 3.0 6.0 0.00 0.08 0.08 51 1012.3
20260903232327 70 195 3.0 5.0 0.00 0.08 0.08 52 1012.2
20260903231826 69 206 4.0 5.0 0.00 0.08 0.08 51 1012.4
20260903231321 69 199 5.0 9.0 0.00 0.08 0.08 52 1012.0
20260903230817 70 204 5.0 8.0 0.00 0.08 0.08 51 1012.2
20260903230312 69 145 3.0 3.0 0.00 0.08 0.08 53 1012.3
20260903225808 69 59 1.0 6.0 0.00 0.08 0.08 52 1012.5
20260903225306 68 214 3.0 5.0 0.00 0.08 0.08 55 1012.3
20260903224801 69 51 4.0 6.0 0.00 0.08 0.08 54 1012.2
20260903224256 68 160 0.0 2.0 0.00 0.08 0.08 56 1012.3
20260903223751 67 161 0.0 2.0 0.00 0.08 0.08 57 1012.4
20260903223250 67 242 3.0 6.0 0.00 0.08 0.08 56 1012.7
20260903222745 67 157 1.0 3.0 0.00 0.08 0.08 59 1012.5
20260903222244 66 191 4.0 5.0 0.00 0.08 0.08 59 1012.5
20260903221739 67 191 2.0 3.0 0.00 0.08 0.08 57 1012.7
20260903221238 67 190 3.0 5.0 0.00 0.08 0.08 56 1012.7
20260903220736 67 198 3.0 3.0 0.00 0.08 0.08 59 1012.5
20260903220231 67 187 3.0 3.0 0.00 0.08 0.08 57 1012.5
20260903215730 66 210 1.0 3.0 0.00 0.08 0.08 62 1012.7
20260903215226 66 176 2.0 3.0 0.00 0.08 0.08 60 1012.7
20260903214723 66 224 4.0 5.0 0.00 0.08 0.08 61 1012.6
20260903214220 66 196 4.0 6.0 0.00 0.08 0.08 61 1012.6
20260903213714 65 140 0.0 1.0 0.00 0.08 0.08 63 1012.7
20260903213210 65 192 3.0 3.0 0.00 0.08 0.08 64 1012.6
20260903212706 65 173 2.0 3.0 0.00 0.08 0.08 63 1012.7
20260903212203 64 170 3.0 3.0 0.00 0.08 0.08 65 1012.6
20260903211701 64 194 2.0 2.0 0.00 0.08 0.08 66 1012.6
20260903211158 64 211 2.0 5.0 0.00 0.08 0.08 66 1012.8
20260903210654 64 211 5.0 6.0 0.00 0.08 0.08 65 1012.7
20260903210149 64 208 3.0 7.0 0.00 0.08 0.08 65 1012.5
20260903205649 64 256 3.0 6.0 0.00 0.08 0.08 64 1012.4
20260903205147 64 236 3.0 5.0 0.00 0.08 0.08 64 1012.4
20260903204644 64 205 5.0 8.0 0.00 0.08 0.08 64 1012.5
20260903204140 64 213 4.0 5.0 0.00 0.08 0.08 65 1012.3
20260903203635 64 241 3.0 6.0 0.00 0.08 0.08 65 1012.6
20260903203130 64 209 2.0 6.0 0.00 0.08 0.08 65 1012.7
20260903202624 64 209 3.0 5.0 0.00 0.08 0.08 67 1012.5
20260903202120 65 206 3.0 6.0 0.00 0.08 0.08 64 1012.5
20260903201614 65 121 4.0 8.0 0.00 0.08 0.08 65 1012.3
20260903201114 64 260 3.0 5.0 0.00 0.08 0.08 66 1012.5
20260903200609 63 143 1.0 1.0 0.00 0.08 0.08 68 1012.5
20260903200104 63 203 4.0 6.0 0.00 0.08 0.08 68 1012.4
20260903195600 63 168 4.0 5.0 0.00 0.08 0.08 69 1012.6
20260903195056 62 182 2.0 3.0 0.00 0.08 0.08 70 1012.5
20260903194551 62 201 3.0 6.0 0.00 0.08 0.08 69 1012.5
20260903194045 62 154 3.0 6.0 0.00 0.08 0.08 69 1012.6
20260903193536 62 139 1.0 5.0 0.00 0.08 0.08 69 1012.6
20260903193031 62 168 3.0 3.0 0.00 0.08 0.08 68 1012.6
20260903192528 62 225 2.0 3.0 0.00 0.08 0.08 68 1012.6
20260903192028 62 168 1.0 2.0 0.00 0.08 0.08 68 1012.6
20260903191524 63 215 3.0 5.0 0.00 0.08 0.08 67 1012.6
20260903191019 63 214 3.0 3.0 0.00 0.08 0.08 67 1012.4
20260903190513 63 209 2.0 8.0 0.00 0.08 0.08 67 1012.5
20260903190012 62 168 1.0 5.0 0.00 0.08 0.08 70 1012.5
20260903185508 62 168 1.0 5.0 0.00 0.08 0.08 70 1012.5
20260903185003 62 157 3.0 3.0 0.00 0.08 0.08 71 1012.7
20260903184459 61 181 1.0 3.0 0.00 0.08 0.08 71 1012.6
20260903183953 62 202 2.0 3.0 0.00 0.08 0.08 71 1012.7
20260903183448 62 196 1.0 1.0 0.00 0.08 0.08 72 1012.4
20260903182948 62 204 1.0 5.0 0.00 0.08 0.08 70 1012.4
20260903182447 62 199 3.0 6.0 0.00 0.08 0.08 69 1012.5
20260903181942 62 173 2.0 3.0 0.00 0.08 0.08 70 1012.4
20260903181436 61 203 3.0 5.0 0.00 0.08 0.08 71 1012.3
20260903180936 61 237 5.0 9.0 0.00 0.08 0.08 71 1012.4
20260903180430 61 207 3.0 3.0 0.00 0.08 0.08 72 1012.5
20260903175930 61 188 3.0 5.0 0.00 0.08 0.08 73 1012.3
20260903175425 61 159 0.0 3.0 0.00 0.08 0.08 75 1012.4
20260903174918 61 143 0.0 2.0 0.00 0.08 0.08 74 1012.4
20260903174414 61 171 2.0 2.0 0.00 0.08 0.08 75 1012.2
20260903173908 61 172 1.0 5.0 0.00 0.08 0.08 75 1012.2
20260903173403 61 127 5.0 6.0 0.00 0.08 0.08 75 1012.1
20260903172859 61 217 4.0 5.0 0.00 0.08 0.08 75 1012.3
20260903172354 61 186 3.0 6.0 0.00 0.08 0.08 75 1012.2
20260903171849 61 205 4.0 9.0 0.00 0.08 0.08 75 1012.1
20260903171344 61 206 4.0 6.0 0.00 0.08 0.08 76 1012.1
20260903170843 61 74 5.0 9.0 0.00 0.08 0.08 77 1011.9
20260903170338 60 177 4.0 6.0 0.00 0.08 0.08 79 1012.1
20260903165837 59 201 2.0 5.0 0.00 0.08 0.08 81 1012.1
20260903165336 59 167 0.0 2.0 0.00 0.08 0.08 85 1012.1
20260903164831 58 112 0.0 1.0 0.00 0.08 0.08 87 1011.8
20260903164327 57 143 0.0 1.0 0.00 0.08 0.08 87 1012.0
20260903163826 57 149 0.0 2.0 0.00 0.08 0.08 86 1012.1
20260903163323 57 133 2.0 2.0 0.00 0.08 0.08 86 1012.3
20260903162818 57 140 0.0 0.0 0.00 0.08 0.08 86 1012.3
20260903162315 57 98 4.0 6.0 0.00 0.08 0.08 86 1012.2
20260903161810 57 87 2.0 2.0 0.00 0.08 0.08 89 1012.1
20260903161306 57 150 1.0 1.0 0.00 0.08 0.08 89 1011.9
20260903160801 57 151 0.0 1.0 0.00 0.08 0.08 89 1012.0
20260903160300 57 88 1.0 3.0 0.00 0.08 0.08 88 1012.1
20260903155759 57 145 0.0 1.0 0.00 0.08 0.08 88 1012.4
20260903155254 57 127 0.0 3.0 0.00 0.08 0.08 86 1012.1
20260903154749 57 131 1.0 2.0 0.00 0.08 0.08 87 1012.3
20260903154245 58 192 3.0 3.0 0.00 0.08 0.08 86 1012.0
20260903153741 58 196 3.0 3.0 0.00 0.08 0.08 86 1012.0
20260903153236 59 133 2.0 3.0 0.00 0.08 0.08 87 1012.0
20260903152733 58 127 1.0 2.0 0.00 0.08 0.08 90 1012.0
20260903152229 57 80 0.0 3.0 0.00 0.08 0.08 91 1012.0
20260903151728 57 126 3.0 6.0 0.00 0.08 0.08 92 1012.0
20260903151224 56 162 1.0 1.0 0.00 0.08 0.08 95 1012.2
20260903150718 55 108 2.0 2.0 0.00 0.08 0.08 95 1011.9
20260903150213 55 148 0.0 0.0 0.00 0.08 0.08 95 1012.0
20260903145708 54 155 0.0 1.0 0.00 0.08 0.08 95 1011.9
20260903145203 54 159 1.0 1.0 0.00 0.08 0.08 96 1012.0
20260903144701 54 142 0.0 3.0 0.00 0.08 0.08 96 1011.9
20260903144157 53 155 0.0 0.0 0.00 0.08 0.08 96 1011.8
20260903143654 53 158 0.0 0.0 0.00 0.08 0.08 96 1011.9
20260903143149 53 154 0.0 0.0 0.00 0.08 0.08 96 1011.8
20260903142644 53 154 0.0 0.0 0.00 0.08 0.08 96 1011.7
20260903142141 53 151 0.0 0.0 0.00 0.08 0.08 96 1011.9
20260903141637 53 154 0.0 0.0 0.05 0.08 0.08 96 1011.8
20260903141131 53 172 0.0 0.0 0.05 0.08 0.08 96 1011.8
20260903140628 53 152 0.0 0.0 0.00 0.07 0.07 96 1011.7
20260903140122 53 170 0.0 0.0 0.00 0.07 0.07 96 1011.7
20260903135618 53 149 0.0 0.0 0.00 0.07 0.07 96 1011.8
20260903135118 53 179 0.0 0.0 0.00 0.07 0.07 96 1011.5
20260903134617 53 161 0.0 0.0 0.00 0.07 0.07 95 1011.7
20260903134113 53 147 0.0 0.0 0.00 0.07 0.07 95 1011.4
20260903133610 53 175 1.0 1.0 0.00 0.07 0.07 95 1011.5
20260903133107 53 150 0.0 1.0 0.00 0.07 0.07 95 1011.6
20260903132601 53 146 1.0 1.0 0.00 0.07 0.07 95 1011.6
20260903132056 53 150 0.0 0.0 0.00 0.07 0.07 95 1011.3
20260903131556 53 159 0.0 0.0 0.07 0.07 0.07 95 1011.4
20260903131049 53 143 1.0 1.0 0.07 0.07 0.07 95 1011.4
20260903130543 53 152 0.0 0.0 0.00 0.06 0.06 95 1011.5
20260903130038 53 157 0.0 0.0 0.05 0.06 0.06 95 1011.3
20260903125537 53 142 0.0 1.0 0.00 0.05 0.05 94 1011.3
20260903125032 53 154 0.0 0.0 0.07 0.05 0.05 94 1011.5
20260903124532 53 155 0.0 1.0 0.07 0.05 0.05 94 1011.4
20260903124027 53 136 1.0 1.0 0.00 0.04 0.04 94 1011.4
20260903123526 53 153 0.0 0.0 0.00 0.04 0.04 94 1011.4
20260903123025 53 154 0.0 0.0 0.00 0.04 0.04 93 1011.2
20260903122519 53 148 0.0 0.0 0.05 0.04 0.04 93 1011.4
20260903122019 53 148 0.0 0.0 0.05 0.04 0.04 92 1011.4
20260903121514 53 146 0.0 1.0 0.07 0.03 0.03 92 1011.2
20260903121010 53 136 1.0 1.0 0.12 0.03 0.03 91 1011.2
20260903120509 53 125 0.0 1.0 0.12 0.02 0.02 91 1011.3
20260903120009 53 144 0.0 1.0 0.07 0.01 0.01 91 1011.2
20260903115508 53 191 2.0 2.0 0.00 0.00 0.00 90 1011.1
20260903115007 53 141 1.0 1.0 0.00 0.00 0.00 90 1011.1
20260903114457 53 175 2.0 2.0 0.00 0.00 0.00 90 1010.7
20260903113953 54 157 1.0 1.0 0.00 0.00 0.00 89 1011.0
20260903113449 54 140 1.0 2.0 0.00 0.00 0.00 89 1010.8
20260903112944 54 150 0.0 2.0 0.00 0.00 0.00 89 1010.8
20260903112440 54 136 0.0 0.0 0.00 0.00 0.00 90 1010.8
20260903111939 54 149 0.0 2.0 0.00 0.00 0.00 90 1010.7
20260903111439 53 144 0.0 1.0 0.00 0.00 0.00 92 1010.7
20260903110935 53 159 0.0 1.0 0.00 0.00 0.00 92 1010.7
20260903110430 53 159 1.0 1.0 0.00 0.00 0.00 93 1010.8
20260903105926 53 149 0.0 1.0 0.00 0.00 0.00 93 1010.7
20260903105421 53 156 0.0 0.0 0.00 0.00 0.00 92 1010.8
20260903104920 53 145 0.0 0.0 0.00 0.00 0.00 93 1010.7
20260903104420 53 144 1.0 1.0 0.00 0.00 0.00 93 1010.5
20260903103917 53 158 0.0 0.0 0.00 0.00 0.00 93 1010.8
20260903103413 53 146 0.0 0.0 0.00 0.00 0.00 93 1010.8
20260903102908 53 142 0.0 0.0 0.00 0.00 0.00 93 1011.1
20260903102402 53 154 0.0 0.0 0.00 0.00 0.00 93 1010.6
20260903101857 53 116 0.0 0.0 0.00 0.00 0.00 93 1010.8
20260903101357 53 145 0.0 0.0 0.00 0.00 0.00 93 1010.9
20260903100852 53 158 0.0 0.0 0.00 0.00 0.00 93 1010.6
20260903100347 53 163 0.0 0.0 0.00 0.00 0.00 94 1010.8
20260903095838 54 185 0.0 0.0 0.00 0.00 0.00 93 1010.8
20260903095338 53 153 0.0 0.0 0.00 0.00 0.00 94 1010.8
20260903094834 53 156 0.0 0.0 0.00 0.00 0.00 94 1010.5
20260903094328 53 149 0.0 0.0 0.00 0.00 0.00 94 1010.7
20260903093824 54 158 0.0 0.0 0.00 0.00 0.00 93 1010.9
20260903093319 54 144 0.0 0.0 0.00 0.00 0.00 93 1010.8
20260903092814 54 146 0.0 0.0 0.00 0.00 0.00 93 1010.7
20260903092309 54 152 0.0 0.0 0.00 0.00 0.00 93 1010.9
20260903091807 54 154 0.0 0.0 0.00 0.00 0.00 92 1010.8
20260903091302 54 150 0.0 0.0 0.00 0.00 0.00 92 1010.6
20260903090758 54 135 0.0 0.0 0.00 0.00 0.00 92 1010.6
20260903090257 54 166 0.0 0.0 0.00 0.00 0.00 92 1010.7
20260903085755 54 168 0.0 0.0 0.00 0.00 0.00 93 1010.7
20260903085249 54 115 1.0 2.0 0.00 0.00 0.00 93 1010.7
20260903084748 54 151 0.0 0.0 0.00 0.00 0.00 93 1010.6
20260903084237 54 194 1.0 2.0 0.00 0.00 0.00 94 1010.7
20260903083733 54 171 0.0 0.0 0.00 0.00 0.00 94 1010.5
20260903083227 54 165 0.0 0.0 0.00 0.00 0.00 94 1010.6
20260903082726 54 181 0.0 0.0 0.00 0.00 0.00 94 1010.7
20260903082222 54 162 0.0 2.0 0.00 0.00 0.00 95 1010.6
20260903081722 54 157 0.0 0.0 0.00 0.00 0.00 95 1010.5
20260903081218 54 141 0.0 0.0 0.00 0.00 0.00 95 1010.4
20260903080714 54 141 0.0 0.0 0.00 0.00 0.00 95 1010.4
20260903080212 54 111 1.0 1.0 0.00 0.00 0.00 95 1010.6
20260903075710 54 148 1.0 1.0 0.00 0.00 0.00 95 1010.6
20260903075206 54 173 0.0 3.0 0.00 0.00 0.00 96 1010.6
20260903074704 54 151 0.0 0.0 0.00 0.00 0.00 96 1010.5
20260903074200 53 145 0.0 0.0 0.00 0.00 0.00 96 1010.6
20260903073655 53 147 1.0 1.0 0.00 0.00 0.00 96 1010.6
20260903073151 53 133 1.0 1.0 0.00 0.00 0.00 95 1010.3
20260903072646 53 144 0.0 1.0 0.00 0.00 0.00 96 1010.5
20260903072143 53 170 1.0 1.0 0.00 0.00 0.00 95 1010.5
20260903071639 53 158 1.0 1.0 0.00 0.00 0.00 95 1010.4
20260903071134 53 125 1.0 2.0 0.00 0.00 0.00 95 1010.3
20260903070633 53 136 1.0 1.0 0.00 0.00 0.00 95 1010.2
20260903070129 53 135 1.0 1.0 0.00 0.00 0.00 95 1010.3
20260903065629 53 142 1.0 1.0 0.00 0.19 0.19 95 1010.3
20260903065124 53 126 1.0 2.0 0.00 0.19 0.19 95 1010.4
20260903064618 53 161 1.0 1.0 0.00 0.19 0.19 95 1010.3
20260903064114 53 154 0.0 0.0 0.00 0.19 0.19 95 1010.3
20260903063609 53 147 0.0 0.0 0.00 0.19 0.19 95 1010.3
20260903063104 53 118 0.0 0.0 0.00 0.19 0.19 95 1010.2
20260903062559 53 143 0.0 0.0 0.00 0.19 0.19 95 1010.3
20260903062054 53 153 0.0 0.0 0.00 0.19 0.19 95 1010.3
20260903061549 53 144 1.0 2.0 0.00 0.19 0.19 95 1010.4
20260903061049 53 118 0.0 0.0 0.00 0.19 0.19 95 1010.3
20260903060549 53 144 0.0 1.0 0.00 0.19 0.19 95 1010.2
20260903060044 53 157 1.0 1.0 0.00 0.19 0.19 96 1010.5
20260903055542 53 158 0.0 0.0 0.00 0.19 0.19 95 1010.4
20260903055041 53 157 0.0 0.0 0.00 0.19 0.19 95 1010.4
20260903054536 53 157 0.0 0.0 0.00 0.19 0.19 95 1010.5
20260903054032 53 162 0.0 1.0 0.00 0.19 0.19 95 1010.4
20260903053532 54 140 1.0 2.0 0.00 0.19 0.19 95 1010.4
20260903053028 54 135 2.0 2.0 0.00 0.19 0.19 95 1010.4
20260903052524 54 147 0.0 2.0 0.00 0.19 0.19 95 1010.5
20260903052019 54 149 1.0 2.0 0.00 0.19 0.19 95 1010.3
20260903051514 54 109 3.0 3.0 0.00 0.19 0.19 95 1010.3
20260903051010 54 141 2.0 3.0 0.00 0.19 0.19 95 1010.4
20260903050509 54 155 0.0 1.0 0.00 0.19 0.19 95 1010.4
20260903050005 54 146 0.0 0.0 0.00 0.19 0.19 94 1010.5
20260903045459 54 139 2.0 2.0 0.00 0.19 0.19 94 1010.2
20260903044955 54 127 1.0 3.0 0.00 0.19 0.19 94 1010.4
20260903044451 55 135 1.0 2.0 0.00 0.19 0.19 94 1010.3